• In Netherlands
  • List of Countries
  • For 7 days
  • Water Temperature
  • Satellite Maps
  • Weather Map
  • Weather Widgets
  • user-avatar
    Login

    Hourly Weather Trinidad

    Today, 20 February, Monday

    Time Temperature Precipitation Wind Pressure Humidity
    00:00 +26°C° 0.1 mm 1 mps 744 mmHg 89%
    01:00 +26°C° 0.1 mm 1 mps 744 mmHg 90%
    02:00 +26°C° 0.1 mm 1 mps 744 mmHg 91%
    03:00 +26°C° 0.3 mm 1 mps 744 mmHg 91%
    04:00 +26°C° 0.3 mm 1 mps 744 mmHg 92%
    05:00 +25°C° 0.3 mm 1 mps 744 mmHg 92%
    06:00 +26°C° 0.6 mm 1 mps 745 mmHg 90%
    07:00 +27°C° 0.6 mm 1 mps 745 mmHg 88%
    08:00 +27°C° 0.6 mm 1 mps 746 mmHg 86%
    09:00 +28°C° 1.5 mm 1 mps 746 mmHg 85%
    10:00 +27°C° 1.5 mm 0 mps 746 mmHg 84%
    11:00 +28°C° 1.5 mm 0 mps 746 mmHg 83%
    12:00 +28°C° 1.4 mm 0 mps 746 mmHg 84%
    13:00 +29°C° 1.4 mm 1 mps 746 mmHg 84%
    14:00 +29°C° 1.4 mm 1 mps 745 mmHg 84%
    15:00 +30°C° 0.1 mm 1 mps 744 mmHg 82%
    16:00 +30°C° 0.1 mm 1 mps 744 mmHg 81%
    17:00 +30°C° 0.1 mm 1 mps 743 mmHg 79%
    18:00 +29°C° 0 mm 1 mps 743 mmHg 84%
    19:00 +28°C° 0 mm 1 mps 743 mmHg 88%
    20:00 +26°C° 0 mm 1 mps 743 mmHg 93%
    21:00 +26°C° 0.2 mm 1 mps 744 mmHg 94%
    22:00 +26°C° 0.2 mm 1 mps 744 mmHg 95%
    23:00 +25°C° 0.2 mm 1 mps 745 mmHg 96%

    Tomorrow, 21 February, Tuesday

    Time Temperature Precipitation Wind Pressure Humidity
    00:00 +25°C° 0.2 mm 1 mps 745 mmHg 96%
    01:00 +25°C° 0.2 mm 1 mps 744 mmHg 95%
    02:00 +25°C° 0.2 mm 1 mps 744 mmHg 94%
    03:00 +25°C° 0.2 mm 1 mps 744 mmHg 95%
    04:00 +25°C° 0.2 mm 1 mps 744 mmHg 95%
    05:00 +25°C° 0.2 mm 1 mps 744 mmHg 95%
    06:00 +25°C° 0.4 mm 1 mps 744 mmHg 94%
    07:00 +26°C° 0.4 mm 1 mps 745 mmHg 92%
    08:00 +26°C° 0.4 mm 1 mps 745 mmHg 90%
    09:00 +28°C° 0.1 mm 2 mps 746 mmHg 82%
    10:00 +30°C° 0.1 mm 2 mps 746 mmHg 73%
    11:00 +32°C° 0.1 mm 2 mps 746 mmHg 65%
    12:00 +32°C° 1.3 mm 2 mps 745 mmHg 66%
    13:00 +32°C° 1.3 mm 2 mps 744 mmHg 66%
    14:00 +34°C° 1.3 mm 2 mps 743 mmHg 67%
    15:00 +34°C° 0.3 mm 2 mps 743 mmHg 65%
    16:00 +34°C° 0.3 mm 2 mps 742 mmHg 63%
    17:00 +34°C° 0.3 mm 2 mps 741 mmHg 61%
    18:00 +31°C° 0.1 mm 2 mps 742 mmHg 67%
    19:00 +29°C° 0.1 mm 1 mps 742 mmHg 73%
    20:00 +28°C° 0.1 mm 1 mps 743 mmHg 79%
    21:00 +27°C° 0.2 mm 1 mps 743 mmHg 81%
    22:00 +27°C° 0.2 mm 1 mps 744 mmHg 83%
    23:00 +26°C° 0.2 mm 1 mps 744 mmHg 85%

    Day after tomorrow, 22 February, Wednesday

    Time Temperature Precipitation Wind Pressure Humidity
    00:00 +26°C° 1 mm 1 mps 744 mmHg 87%
    01:00 +25°C° 1 mm 1 mps 744 mmHg 89%
    02:00 +25°C° 1 mm 1 mps 743 mmHg 91%
    03:00 +25°C° 1.5 mm 1 mps 743 mmHg 93%
    04:00 +24°C° 1.5 mm 1 mps 743 mmHg 95%
    05:00 +24°C° 1.5 mm 1 mps 743 mmHg 97%
    06:00 +25°C° 0.5 mm 2 mps 744 mmHg 96%
    07:00 +25°C° 0.5 mm 2 mps 744 mmHg 95%
    08:00 +25°C° 0.5 mm 2 mps 745 mmHg 95%
    09:00 +26°C° 0.5 mm 2 mps 745 mmHg 92%
    10:00 +27°C° 0.5 mm 2 mps 745 mmHg 89%
    11:00 +28°C° 0.5 mm 2 mps 746 mmHg 86%
    12:00 +29°C° 0.1 mm 2 mps 745 mmHg 79%
    13:00 +30°C° 0.1 mm 2 mps 744 mmHg 73%
    14:00 +31°C° 0.1 mm 2 mps 743 mmHg 67%
    15:00 +31°C° 0.2 mm 2 mps 742 mmHg 68%
    16:00 +31°C° 0.2 mm 2 mps 742 mmHg 70%
    17:00 +31°C° 0.2 mm 2 mps 741 mmHg 72%
    18:00 +30°C° 0.1 mm 2 mps 741 mmHg 78%
    19:00 +28°C° 0.1 mm 2 mps 742 mmHg 84%
    20:00 +27°C° 0.1 mm 1 mps 742 mmHg 90%
    21:00 +27°C° 0.2 mm 1 mps 743 mmHg 91%
    22:00 +26°C° 0.2 mm 1 mps 743 mmHg 92%
    23:00 +26°C° 0.2 mm 1 mps 744 mmHg 94%

    23 February, Thursday

    Time Temperature Precipitation Wind Pressure Humidity
    00:00 +26°C° 1.4 mm 1 mps 743 mmHg 94%
    01:00 +25°C° 1.4 mm 1 mps 743 mmHg 95%
    02:00 +25°C° 1.4 mm 1 mps 743 mmHg 95%
    03:00 +25°C° 0.7 mm 1 mps 743 mmHg 95%
    04:00 +25°C° 0.7 mm 1 mps 743 mmHg 95%
    05:00 +22°C° 0.7 mm 0 mps 743 mmHg 95%
    06:00 +25°C° 2.7 mm 1 mps 743 mmHg 95%
    07:00 +26°C° 2.7 mm 1 mps 744 mmHg 94%
    08:00 +26°C° 2.7 mm 1 mps 745 mmHg 93%
    09:00 +27°C° 1.9 mm 1 mps 745 mmHg 93%
    10:00 +27°C° 1.9 mm 1 mps 745 mmHg 93%
    11:00 +27°C° 1.9 mm 1 mps 745 mmHg 93%
    12:00 +27°C° 0.9 mm 1 mps 745 mmHg 91%
    13:00 +28°C° 0.9 mm 1 mps 745 mmHg 90%
    14:00 +28°C° 0.9 mm 1 mps 744 mmHg 89%
    15:00 +28°C° 0.3 mm 1 mps 744 mmHg 90%
    16:00 +27°C° 0.3 mm 1 mps 743 mmHg 91%
    17:00 +25°C° 0.3 mm 0 mps 743 mmHg 92%
    18:00 +26°C° 0.1 mm 1 mps 743 mmHg 93%
    19:00 +26°C° 0.1 mm 1 mps 743 mmHg 95%
    20:00 +25°C° 0.1 mm 1 mps 743 mmHg 96%
    21:00 +22°C° 0 mm 0 mps 743 mmHg 96%
    22:00 +22°C° 0 mm 0 mps 744 mmHg 96%
    23:00 +22°C° 0 mm 0 mps 744 mmHg 96%

    24 February, Friday

    Time Temperature Precipitation Wind Pressure Humidity
    00:00 +21°C° 0 mm 0 mps 744 mmHg 96%
    01:00 +21°C° 0 mm 0 mps 744 mmHg 96%
    02:00 +21°C° 0 mm 0 mps 743 mmHg 96%
    03:00 +21°C° 0 mm 0 mps 743 mmHg 96%
    04:00 +21°C° 0 mm 0 mps 743 mmHg 96%
    05:00 +21°C° 0 mm 0 mps 743 mmHg 96%
    06:00 +22°C° 0 mm 0 mps 744 mmHg 94%
    07:00 +23°C° 0 mm 0 mps 745 mmHg 91%
    08:00 +24°C° 0 mm 0 mps 745 mmHg 89%
    09:00 +27°C° 0 mm 0 mps 745 mmHg 79%
    10:00 +29°C° 0 mm 0 mps 745 mmHg 70%
    11:00 +32°C° 0 mm 0 mps 745 mmHg 60%
    12:00 +34°C° 0.1 mm 1 mps 745 mmHg 59%
    13:00 +34°C° 0.1 mm 1 mps 744 mmHg 58%
    14:00 +34°C° 0.1 mm 1 mps 743 mmHg 57%
    15:00 +34°C° 0.2 mm 2 mps 743 mmHg 62%
    16:00 +32°C° 0.2 mm 2 mps 742 mmHg 67%
    17:00 +31°C° 0.2 mm 3 mps 742 mmHg 72%
    18:00 +30°C° 0 mm 2 mps 742 mmHg 79%
    19:00 +28°C° 0 mm 2 mps 742 mmHg 85%
    20:00 +27°C° 0 mm 2 mps 743 mmHg 91%
    21:00 +26°C° 0 mm 2 mps 743 mmHg 92%
    22:00 +26°C° 0 mm 2 mps 744 mmHg 94%
    23:00 +25°C° 0 mm 1 mps 744 mmHg 96%

    25 February, Saturday

    Time Temperature Precipitation Wind Pressure Humidity
    00:00 +25°C° 0 mm 2 mps 744 mmHg 96%
    01:00 +25°C° 0 mm 2 mps 743 mmHg 96%
    02:00 +25°C° 0 mm 2 mps 743 mmHg 97%
    03:00 +25°C° 0 mm 2 mps 743 mmHg 97%
    04:00 +24°C° 0 mm 2 mps 743 mmHg 97%
    05:00 +24°C° 0 mm 2 mps 743 mmHg 97%
    06:00 +25°C° 0 mm 2 mps 744 mmHg 94%
    07:00 +26°C° 0 mm 3 mps 744 mmHg 91%
    08:00 +26°C° 0 mm 3 mps 745 mmHg 88%
    09:00 +28°C° 0 mm 3 mps 745 mmHg 79%
    10:00 +30°C° 0 mm 3 mps 745 mmHg 69%
    11:00 +33°C° 0 mm 3 mps 745 mmHg 60%
    12:00 +34°C° 0 mm 3 mps 744 mmHg 57%
    13:00 +35°C° 0 mm 3 mps 743 mmHg 54%
    14:00 +35°C° 0 mm 4 mps 742 mmHg 51%
    15:00 +35°C° 0.1 mm 3 mps 742 mmHg 54%
    16:00 +34°C° 0.1 mm 3 mps 741 mmHg 57%
    17:00 +34°C° 0.1 mm 3 mps 740 mmHg 60%
    18:00 +31°C° 0 mm 3 mps 741 mmHg 67%
    19:00 +30°C° 0 mm 3 mps 741 mmHg 73%
    20:00 +28°C° 0 mm 2 mps 741 mmHg 80%
    21:00 +27°C° 0 mm 2 mps 742 mmHg 82%
    22:00 +27°C° 0 mm 2 mps 742 mmHg 84%
    23:00 +26°C° 0 mm 2 mps 743 mmHg 85%
    Show more